TimeCST,TemperatureF,Dew PointF,Humidity,Sea Level PressureIn,VisibilityMPH,Wind Direction,Wind SpeedMPH,Gust SpeedMPH,PrecipitationIn,Events,Conditions,WindDirDegrees,DateUTC
12:53 AM,37.0,34.0,89,30.32,9.0,Calm,Calm,-,N/A,,Clear,0,2012-11-19 06:53:00
1:53 AM,36.0,34.0,93,30.32,9.0,Calm,Calm,-,N/A,,Clear,0,2012-11-19 07:53:00
2:53 AM,37.9,35.1,89,30.31,9.0,Calm,Calm,-,N/A,,Clear,0,2012-11-19 08:53:00
5:53 AM,35.1,32.0,89,30.30,8.0,East,3.5,-,N/A,,Clear,100,2012-11-19 11:53:00
6:53 AM,34.0,32.0,92,30.31,5.0,Calm,Calm,-,N/A,,Clear,0,2012-11-19 12:53:00
7:53 AM,35.1,34.0,96,30.32,7.0,Calm,Calm,-,N/A,,Clear,0,2012-11-19 13:53:00
8:53 AM,46.9,39.0,74,30.32,8.0,Calm,Calm,-,N/A,,Clear,0,2012-11-19 14:53:00
10:53 AM,59.0,41.0,51,30.31,10.0,West,4.6,-,N/A,,Clear,260,2012-11-19 16:53:00
11:53 AM,61.0,37.0,41,30.27,10.0,SSW,8.1,-,N/A,,Clear,210,2012-11-19 17:53:00
12:53 PM,60.1,37.9,44,30.25,10.0,South,11.5,-,N/A,,Mostly Cloudy,190,2012-11-19 18:53:00
1:53 PM,60.1,39.0,46,30.23,10.0,South,9.2,-,N/A,,Overcast,190,2012-11-19 19:53:00
2:53 PM,60.1,42.1,51,30.21,10.0,Calm,Calm,-,N/A,,Overcast,0,2012-11-19 20:53:00
3:53 PM,59.0,41.0,51,30.21,10.0,South,3.5,-,N/A,,Overcast,170,2012-11-19 21:53:00
4:53 PM,54.0,42.1,64,30.20,10.0,South,4.6,-,N/A,,Overcast,180,2012-11-19 22:53:00
5:53 PM,53.1,43.0,69,30.21,10.0,SSE,3.5,-,N/A,,Overcast,160,2012-11-19 23:53:00
6:53 PM,53.1,44.1,71,30.20,10.0,SSW,3.5,-,N/A,,Overcast,200,2012-11-20 00:53:00
7:53 PM,53.1,43.0,69,30.19,10.0,South,4.6,-,N/A,,Overcast,190,2012-11-20 01:53:00
8:53 PM,50.0,42.1,74,30.18,10.0,Calm,Calm,-,N/A,,Partly Cloudy,0,2012-11-20 02:53:00
9:53 PM,51.1,43.0,74,30.17,10.0,SE,3.5,-,N/A,,Overcast,140,2012-11-20 03:53:00
10:53 PM,53.1,43.0,69,30.17,10.0,SSE,3.5,-,N/A,,Overcast,150,2012-11-20 04:53:00
11:53 PM,52.0,43.0,71,30.15,10.0,South,3.5,-,N/A,,Mostly Cloudy,180,2012-11-20 05:53:00